Regional Weather Roundup
Issued by NWS Albany, NY

Home | Current Version | Previous Version | Text Only | Print | Product List | Glossary On
Versions: 1 2 3 4 5 6 7 8 9 10 11 12 13 14 15 16 17 18 19 20 21 22 23 24 25 26 27 28 29 30 31 32 33 34 35 36 37 38 39 40 41 42 43 44 45 46 47 48 49 50
000
ASUS41 KALY 200210
RWRALY

NEW YORK STATE HOURLY WEATHER ROUNDUP
NATIONAL WEATHER SERVICE ALBANY NY
900 PM EST SUN FEB 19 2017

NOTE: "FAIR" INDICATES FEW OR NO CLOUDS BELOW 12,000 FEET WITH NO
SIGNIFICANT WEATHER AND/OR NO OBSTRUCTIONS TO VISIBILITY.

NYZ032-033-038>043-046>054-057>066-NYZ062>081-082-084-200300-
EAST


CITY           SKY/WX    TMP DP  RH WIND       PRES   REMARKS
ALBANY         MOCLDY    45  31  58 W10       29.95R
GLENS FALLS    CLOUDY    49  30  48 NW9       29.94R
POUGHKEEPSIE   CLEAR     38  29  70 CALM      29.94R
NEWBURGH       CLEAR     48  34  57 NW7       29.96R
MONTGOMERY     CLEAR     37  29  72 CALM      29.94R
WHITE PLAINS   CLEAR     48  27  44 NW5       29.93R
ISLIP          CLEAR     50  28  42 NW6       29.92R
NEW YORK CITY  CLEAR     57  30  35 N8        29.93R
CENTRAL PARK   CLEAR     58  30  34 N6        29.96R
$$

NYZ005>009-017-018-044>046-055-056-200300-
CENTRAL


CITY           SKY/WX    TMP DP  RH WIND       PRES   REMARKS
FULTON         CLEAR     41  30  65 W9        30.02R
SYRACUSE       CLEAR     40  32  73 W10       30.02R WCI  33
ROME           MOCLDY    37  31  78 NW6       30.01R WCI  32
ELMIRA         CLEAR     49  33  54 NW9       30.03R
BINGHAMTON     PTCLDY    41  31  67 NW9       29.99R
MONTICELLO     CLEAR     45  30  57 NW8       29.97R
$$

NYZ026>034-041>043-087-200300-
NORTH


CITY           SKY/WX    TMP DP  RH WIND       PRES   REMARKS
WATERTOWN      CLOUDY    37  34  89 E5        30.01R WCI  33
FORT DRUM      NOT AVBL
OGDENSBURG     MOCLDY    41  32  69 N8        30.02R
MASSENA        CLOUDY    39  29  67 NW7       30.03R WCI  34
SARANAC LAKE   CLOUDY    37  30  75 VRB6      29.92R WCI  32
PLATTSBURGH    CLOUDY    41  31  67 NW12      29.96R
$$

NYZ001>004-010>016-019>021-085-200300-
WEST


CITY           SKY/WX    TMP DP  RH WIND       PRES   REMARKS
NIAGARA FALLS  CLEAR     40  31  70 NW8       30.09R WCI  34
BUFFALO        PTCLDY    35  31  85 SW5       30.09R FOG     WCI  31
DUNKIRK        CLEAR     41  33  73 W8        30.11R
JAMESTOWN      CLEAR     41  30  65 NW8       30.09R
WELLSVILLE     CLEAR     43  33  68 NW13      30.06R
ROCHESTER      CLEAR     43  32  65 NW13      30.07R
PENN YAN       CLEAR     43  31  62 NW5       30.05R
$$

             KEY
       WCI = WIND CHILL INDEX
       VSB = VISIBILITY
       HX  = HEAT INDEX
$$



USA.gov is the U.S. government's official web portal to all federal, state and local government web resources and services.